Location: Rancho Del Sol Observatory
(38.7214°N, 120.6350°W)
Time: 18:21:05
(UTC-08:00)

Courier 1B Rocket - Pass Details

Date: 26 January 2020
Orbit: 920 x 1202 km, 28.2° (Epoch: 25 February)

Event Time Altitude Azimuth Distance (km) Brightness Sun altitude
Rises 08:49:53 0° 201° (SSW) 4,051 8.5 15.1°
Reaches altitude 10° 08:55:09 10° 172° (S) 3,043 8.5 15.9°
Maximum altitude 08:57:33 12° 153° (SSE) 2,890 9.1 16.3°
Drops below altitude 10° 08:59:54 10° 134° (SE) 2,988 10.4 16.6°
Sets 09:04:55 0° 104° (ESE) 3,876 9.2 17.3°
